Wind_Speed
17 15 12 10 9 8 6 6 5 5 6 6 8 9 9 10 11 12 12 13 13 14 13 13 13 13 13 13 13 13 13 12 12 11 11 10 9 8 7 7 6 5 5 5
18 16 14 13 12 10 7 6 5 3 3 3 4 5 7 7 8 10 10 11 11 11 11 11 12 11 11 11 11 12 12 11 11 11 11 10 9 8 8 7 7 6 5 4
19 18 16 15 13 12 10 7 5 4 3 2 2 2 3 5 6 7 8 9 9 9 10 10 10 10 10 10 10 11 11 11 10 10 10 10 9 8 8 8 7 7 6 4
20 20 18 17 15 14 12 10 8 6 5 4 3 1 1 2 4 6 7 8 8 8 8 9 9 9 9 8 9 9 10 10 10 10 9 9 9 8 8 8 7 7 6 6
21 20 19 18 17 16 14 14 12 10 8 6 5 3 2 1 3 4 5 6 7 7 7 7 7 7 7 7 7 8 8 9 9 9 9 8 8 8 8 8 8 7 6 6
23 22 21 20 19 18 17 17 15 14 12 10 7 5 4 3 2 3 3 5 6 5 5 5 5 5 6 6 7 7 7 8 8 8 8 8 7 8 8 8 8 7 7 7
26 25 24 23 22 21 20 19 18 16 14 12 9 8 6 5 4 3 3 4 5 6 6 6 5 5 6 6 7 6 7 8 8 8 8 8 7 8 8 8 8 8 8 7
28 27 25 25 24 23 22 21 20 19 16 14 13 11 9 8 6 4 4 3 3 4 5 6 6 6 6 7 7 6 7 7 7 7 8 7 7 8 8 8 8 8 8 7
29 27 27 26 25 24 23 22 21 21 20 18 17 15 13 10 9 7 6 5 4 3 3 5 6 7 6 6 6 7 7 7 7 7 8 7 7 8 8 9 8 8 7 8
30 29 28 27 27 26 25 24 24 24 23 21 19 17 14 12 11 10 8 7 7 6 4 5 5 6 5 5 5 6 6 6 6 7 7 7 7 8 9 9 9 9 8 9
30 30 29 29 29 28 27 27 27 26 26 24 22 18 15 13 12 11 10 10 9 7 7 7 6 6 6 6 6 6 7 6 6 7 7 8 8 9 9 9 9 9 10 10
32 32 31 31 30 29 29 28 27 27 26 25 23 20 16 14 14 13 13 12 11 10 9 9 8 8 7 7 6 7 8 7 7 7 8 8 9 9 10 10 10 10 10 10
34 34 33 32 33 32 31 29 28 27 26 25 24 21 18 17 16 15 14 14 13 12 11 11 10 10 9 8 8 9 9 8 8 8 9 9 9 10 10 10 10 10 11 11
35 36 35 34 34 33 32 31 29 27 27 26 24 22 20 19 18 17 17 16 15 14 13 13 12 12 11 10 10 11 10 10 10 10 10 10 10 11 11 11 11 11 12 12
36 35 34 34 34 34 34 33 31 30 29 28 26 24 22 20 21 20 19 18 17 16 15 15 14 14 14 13 12 12 13 12 12 12 12 12 12 13 12 12 12 13 13 13
36 35 34 35 34 35 35 35 34 33 32 30 29 26 24 23 22 22 21 20 19 18 18 18 17 16 16 15 14 14 14 15 15 15 15 15 14 15 14 14 14 14 14 14
36 36 36 36 35 36 37 36 36 35 34 32 31 28 26 24 23 23 23 22 20 20 20 20 19 18 18 18 17 16 16 16 17 17 17 17 17 16 16 15 15 15 16 16
36 37 38 38 37 38 36 35 36 35 35 34 32 30 28 25 24 24 23 23 21 21 21 21 20 20 20 20 19 18 18 18 18 19 19 19 20 19 18 17 17 17 17 17
37 37 38 39 39 39 37 36 36 36 35 35 33 32 31 29 27 26 25 24 23 23 23 22 22 22 21 21 20 19 19 19 20 20 20 20 20 20 20 20 19 18 17 18
37 37 38 38 39 39 37 36 35 35 35 34 33 33 32 31 29 27 27 26 25 25 24 23 23 23 23 22 21 21 21 21 21 22 23 22 21 22 22 22 22 20 19 19
37 37 38 38 38 38 36 36 36 36 35 34 33 34 34 33 31 30 29 29 27 27 26 25 25 25 25 24 23 23 24 23 23 24 24 24 23 23 23 23 22 22 22 21
36 37 38 38 38 37 35 36 36 36 35 34 33 33 34 34 33 33 32 32 31 30 29 29 28 27 27 27 27 26 25 24 24 24 24 25 25 24 23 22 23 23 24 23
36 37 37 38 37 36 35 35 35 35 36 35 35 34 34 34 34 34 34 34 34 34 33 32 31 30 30 30 29 29 27 26 26 26 26 26 26 26 25 24 24 25 25 25
36 36 36 37 36 36 36 36 36 36 36 36 36 35 35 35 35 35 35 35 36 36 36 35 35 34 33 33 33 31 30 29 29 29 29 29 29 28 27 26 26 26 27 27
35 35 36 36 35 36 36 36 37 36 36 36 36 36 36 37 37 37 37 37 36 37 37 36 35 35 36 35 35 34 33 32 31 31 31 32 32 31 29 28 28 28 27 28
34 35 35 35 35 36 37 37 38 37 36 36 37 37 36 36 37 37 37 38 38 38 37 38 38 38 38 38 37 36 35 35 34 33 33 33 33 33 32 31 30 29 29 29
Wind_Direction
206 203 203 200 194 184 168 152 132 110 93 84 76 69 61 55 51 52 54 54 54 54 58 60 59 60 61 60 58 57 56 56 56 54 53 53 53 51 47 44 44 36 25 18
209 207 207 206 206 202 188 172 162 146 128 91 87 76 60 52 45 47 49 51 52 52 54 56 55 57 56 55 54 54 52 52 51 49 48 49 49 46 41 38 33 29 18 13
209 210 211 210 210 208 205 201 199 204 189 177 145 91 61 50 45 43 45 48 48 49 47 51 52 52 53 50 47 47 46 45 46 47 45 45 45 40 37 35 33 30 25 23
210 212 214 214 214 215 216 219 219 226 227 220 222 199 20 26 30 33 33 38 37 39 42 43 44 49 51 49 43 42 41 39 42 43 41 39 37 37 33 29 27 25 25 23
213 215 216 218 219 220 221 227 228 230 237 241 245 249 256 307 1 20 21 29 33 28 28 32 39 45 45 41 40 37 33 36 36 36 38 35 29 29 28 25 20 16 14 11
216 217 218 220 221 221 224 228 233 234 236 241 252 256 235 273 315 350 360 11 24 18 11 18 29 34 36 29 29 31 30 30 27 27 28 25 19 20 18 16 11 7 5 1
219 219 220 221 221 223 226 228 233 234 236 241 254 255 242 256 272 303 318 342 8 24 23 17 20 31 29 26 21 23 25 21 18 20 20 14 13 11 6 5 3 357 355 355
222 222 223 224 225 228 230 233 237 240 241 245 250 254 248 251 256 273 287 310 334 4 19 19 25 27 22 19 17 16 11 13 13 14 16 14 7 4 1 359 357 355 350 350
222 224 225 226 228 229 231 233 236 241 244 248 251 257 255 251 252 263 274 282 299 320 347 1 7 13 13 8 7 3 2 5 7 6 6 6 1 0 357 355 354 350 345 343
223 224 224 227 228 230 231 232 235 240 245 248 252 256 256 254 256 260 264 273 285 292 308 331 339 351 355 349 345 344 349 356 357 357 356 355 352 350 351 349 347 347 343 339
225 225 224 226 228 230 232 234 237 242 246 250 254 253 255 257 255 257 263 270 274 282 294 305 319 336 339 339 337 337 334 340 344 346 347 347 345 345 344 342 341 341 340 338
226 227 227 228 229 231 233 236 239 242 246 251 255 253 252 255 254 256 262 269 270 275 282 290 301 313 319 320 322 326 324 326 328 332 337 340 338 337 335 333 334 337 337 336
227 228 229 229 229 230 232 234 237 242 247 251 253 254 254 257 255 257 261 266 267 271 276 282 288 298 304 306 308 314 312 312 312 320 326 329 328 331 328 326 328 330 331 330
229 230 231 232 232 232 234 235 238 242 246 250 252 254 256 257 255 257 259 263 264 266 269 276 281 289 295 301 302 306 309 307 305 310 313 315 313 320 321 319 323 326 326 326
229 232 233 233 232 234 236 237 238 242 245 248 251 253 254 257 256 257 259 261 263 263 265 271 277 284 288 293 295 296 300 300 296 299 303 305 304 307 309 308 313 317 319 319
232 233 234 234 234 234 235 236 238 240 243 246 249 251 254 256 256 256 259 261 264 263 264 267 272 278 281 285 289 291 295 296 293 291 294 295 296 296 297 297 302 307 310 313
233 234 234 235 235 236 236 237 239 241 243 246 249 251 253 253 255 257 259 259 261 263 263 265 267 273 278 282 285 288 290 293 292 291 291 289 289 289 289 291 296 300 302 306
234 234 235 236 236 238 239 240 242 243 244 246 249 250 252 252 253 256 257 257 258 261 263 263 265 270 275 277 281 284 288 290 289 286 287 289 288 287 283 285 289 293 298 301
234 235 237 237 238 241 241 242 243 244 245 246 248 248 249 250 252 255 257 258 257 259 261 261 264 268 271 272 276 279 283 286 286 284 283 286 286 287 285 284 286 289 293 294
235 236 238 239 240 242 243 245 245 245 246 246 246 247 248 249 251 254 256 258 258 258 258 260 262 265 266 269 272 276 281 283 284 283 281 280 281 282 284 285 286 287 288 291
237 238 239 240 241 243 243 244 245 246 246 246 246 247 248 250 251 252 253 255 257 257 260 261 262 263 266 268 271 275 278 282 284 283 280 279 279 279 281 282 284 286 288 290
238 240 241 241 242 243 244 244 246 248 248 248 248 249 250 251 251 252 253 254 256 256 258 261 262 264 266 269 271 274 278 282 284 283 280 280 279 280 281 282 281 282 286 286
240 240 242 243 243 244 245 246 247 248 249 248 249 250 250 251 251 252 253 254 256 256 256 258 260 263 266 268 269 272 276 279 280 281 281 281 282 282 282 282 283 283 285 286
241 241 243 245 244 244 245 246 247 248 249 249 250 250 251 252 252 253 252 253 255 256 256 258 259 261 265 269 268 270 273 275 276 278 279 280 281 281 282 282 282 283 285 287
242 243 244 246 246 244 245 246 247 248 249 249 249 251 252 252 253 254 253 254 255 256 258 258 260 263 265 266 269 270 271 273 274 275 276 276 277 278 280 280 281 281 281 282
242 243 244 245 246 246 245 246 247 248 248 249 250 250 252 253 253 254 255 255 255 256 257 258 260 263 265 266 268 269 271 272 273 275 275 275 274 275 277 278 279 280 279 280
Height
5906 5909 5910 5912 5913 5915 5915 5917 5917 5917 5918 5918 5918 5918 5918 5917 5917 5916 5914 5913 5912 5911 5909 5908 5907 5906 5906 5905 5904 5903 5901 5900 5900 5899 5898 5897 5896 5895 5895 5893 5892 5892 5891 5891
5906 5907 5909 5911 5912 5914 5915 5916 5917 5918 5919 5919 5919 5919 5919 5919 5918 5917 5916 5915 5914 5913 5911 5910 5909 5908 5907 5907 5906 5904 5903 5902 5901 5900 5899 5899 5898 5897 5896 5895 5894 5892 5892 5891
5904 5907 5907 5910 5912 5913 5915 5916 5917 5918 5919 5919 5920 5920 5920 5920 5919 5919 5918 5916 5915 5914 5913 5912 5911 5910 5909 5908 5907 5906 5905 5904 5903 5902 5901 5900 5899 5898 5897 5896 5895 5893 5892 5891
5901 5904 5906 5908 5910 5912 5914 5916 5917 5918 5918 5919 5920 5921 5921 5920 5920 5920 5919 5918 5917 5916 5915 5913 5912 5911 5910 5909 5908 5907 5906 5905 5904 5903 5902 5901 5900 5899 5898 5897 5895 5894 5893 5892
5898 5901 5904 5906 5909 5911 5913 5914 5916 5917 5917 5918 5919 5920 5922 5921 5921 5921 5920 5919 5918 5917 5916 5914 5913 5912 5911 5910 5909 5908 5907 5906 5905 5904 5903 5902 5901 5900 5899 5897 5896 5895 5894 5893
5896 5899 5901 5904 5906 5908 5911 5913 5914 5915 5916 5917 5919 5920 5921 5920 5921 5920 5920 5920 5918 5917 5916 5915 5914 5913 5912 5911 5910 5909 5908 5907 5906 5905 5903 5903 5902 5900 5899 5898 5897 5895 5894 5893
5892 5895 5898 5901 5903 5905 5908 5911 5912 5913 5914 5916 5918 5918 5920 5920 5920 5920 5920 5919 5919 5917 5916 5915 5914 5913 5912 5911 5910 5909 5908 5907 5906 5905 5904 5903 5902 5901 5900 5898 5897 5895 5894 5893
5888 5892 5895 5897 5900 5903 5905 5908 5910 5911 5912 5914 5915 5916 5919 5919 5919 5919 5919 5919 5918 5917 5916 5915 5914 5913 5912 5911 5910 5910 5908 5907 5906 5905 5904 5903 5902 5901 5900 5898 5897 5895 5894 5893
5884 5889 5892 5894 5897 5900 5902 5904 5907 5908 5909 5911 5913 5915 5916 5917 5917 5918 5918 5918 5918 5917 5916 5915 5914 5913 5912 5911 5911 5910 5909 5907 5906 5905 5904 5903 5901 5900 5899 5898 5896 5895 5893 5892
5879 5884 5887 5890 5893 5895 5898 5901 5903 5904 5906 5908 5910 5912 5914 5915 5916 5916 5917 5917 5917 5916 5916 5915 5914 5913 5912 5911 5910 5909 5908 5907 5906 5905 5904 5903 5901 5900 5898 5897 5896 5894 5892 5891
5874 5878 5882 5885 5887 5890 5894 5896 5898 5900 5902 5904 5906 5911 5912 5913 5914 5914 5915 5915 5915 5915 5915 5914 5913 5913 5912 5911 5909 5908 5907 5906 5905 5904 5903 5902 5901 5899 5898 5896 5895 5893 5891 5890
5868 5872 5875 5879 5883 5886 5889 5892 5894 5897 5899 5900 5902 5908 5908 5910 5911 5912 5912 5913 5913 5913 5913 5912 5912 5911 5910 5910 5908 5907 5906 5905 5904 5903 5902 5901 5900 5898 5897 5896 5894 5892 5890 5888
5861 5865 5869 5873 5878 5880 5883 5886 5889 5892 5894 5896 5898 5904 5904 5906 5907 5908 5909 5910 5910 5910 5910 5910 5910 5909 5909 5908 5907 5905 5904 5903 5902 5901 5900 5899 5898 5897 5896 5894 5892 5891 5889 5887
5855 5859 5863 5867 5871 5874 5877 5881 5884 5886 5889 5891 5894 5897 5899 5901 5903 5904 5905 5906 5906 5907 5907 5907 5907 5906 5906 5905 5904 5903 5902 5901 5900 5899 5898 5897 5896 5895 5894 5892 5890 5889 5887 5885
5848 5852 5856 5860 5864 5868 5871 5875 5878 5881 5883 5886 5889 5891 5894 5896 5898 5900 5901 5902 5902 5903 5903 5903 5903 5903 5903 5902 5901 5900 5899 5898 5897 5896 5896 5895 5894 5892 5891 5890 5888 5887 5885 5883
5841 5845 5849 5853 5857 5861 5864 5868 5871 5875 5877 5880 5883 5886 5889 5890 5892 5894 5895 5897 5897 5898 5899 5899 5899 5899 5898 5898 5897 5897 5896 5894 5894 5893 5892 5891 5890 5889 5888 5887 5885 5884 5882 5880
5834 5838 5842 5846 5850 5853 5857 5861 5864 5868 5871 5874 5877 5881 5883 5885 5887 5888 5890 5891 5892 5893 5893 5894 5894 5894 5894 5894 5893 5893 5892 5891 5890 5889 5888 5887 5886 5885 5884 5883 5882 5880 5878 5877
5827 5831 5835 5838 5842 5845 5852 5854 5858 5861 5864 5867 5870 5874 5876 5879 5880 5882 5884 5885 5886 5887 5888 5888 5889 5889 5889 5888 5888 5888 5887 5887 5886 5885 5884 5883 5882 5881 5880 5878 5877 5876 5874 5873
5819 5823 5827 5830 5833 5838 5843 5847 5850 5853 5856 5860 5863 5866 5869 5871 5873 5875 5877 5878 5880 5881 5881 5882 5883 5883 5883 5883 5883 5883 5882 5882 5881 5880 5879 5878 5877 5876 5875 5873 5872 5871 5869 5868
5811 5815 5819 5822 5826 5830 5837 5839 5842 5846 5849 5852 5855 5858 5861 5863 5866 5869 5870 5871 5873 5874 5875 5876 5877 5877 5877 5877 5877 5877 5876 5875 5875 5874 5873 5872 5871 5870 5869 5868 5867 5865 5864 5864
5803 5807 5810 5814 5817 5822 5828 5831 5834 5838 5842 5844 5847 5849 5852 5855 5858 5861 5863 5864 5866 5867 5867 5868 5869 5870 5870 5871 5871 5871 5870 5869 5868 5866 5866 5866 5865 5864 5863 5862 5861 5860 5859 5858
5795 5799 5802 5806 5810 5817 5819 5822 5826 5829 5832 5835 5838 5841 5844 5847 5850 5852 5854 5856 5858 5859 5860 5860 5861 5862 5863 5863 5864 5864 5863 5862 5861 5860 5859 5859 5859 5858 5857 5856 5854 5854 5854 5853
5787 5791 5794 5799 5805 5808 5811 5814 5817 5819 5823 5826 5829 5832 5835 5838 5840 5843 5845 5847 5849 5850 5851 5852 5853 5854 5855 5855 5855 5856 5856 5855 5855 5854 5853 5853 5852 5851 5850 5849 5849 5848 5847 5846
5779 5782 5786 5790 5795 5799 5802 5805 5807 5810 5813 5816 5819 5823 5825 5828 5831 5833 5836 5838 5839 5841 5842 5843 5844 5845 5846 5846 5847 5847 5847 5847 5847 5847 5846 5845 5845 5844 5843 5843 5842 5842 5841 5840
5771 5774 5777 5781 5786 5789 5792 5795 5798 5801 5804 5807 5810 5813 5815 5818 5821 5823 5825 5827 5829 5830 5832 5833 5835 5836 5837 5837 5838 5838 5838 5838 5838 5838 5838 5837 5837 5836 5836 5835 5835 5834 5834 5833
5762 5765 5769 5773 5776 5779 5783 5785 5788 5791 5794 5797 5800 5803 5805 5807 5810 5812 5814 5816 5818 5819 5821 5822 5824 5826 5827 5827 5828 5828 5829 5829 5829 5829 5829 5828 5828 5827 5827 5827 5827 5826 5826 5825